[[{"header":{"parameterUnit":"m.s-1","parameterCategory":1,"la1":30.2991,"la2":30.254,"lo1":-89.0895,"lo2":-89.0444,"dy":0.0017,"dx":0.0017,"nx":28,"ny":28,"refTime":"2026-01-31T09:00:00:Z","depth":0,"parameterNumber":2,"parameterNumberName":"U-component_of_WINDS"},"data":[0,0,0,0,0,0,0,0,0,0,0,0,0,0,0,0,0,0,0,0,0,0,0,0,0,0,0,0,0,0,0,0,0,0,0,0,0,0,0,0,0,0,0,0,0,0,0,0,0,0,0,0,0,0,0,0,0,0,4.5055,4.5056,0,4.5111,4.5112,4.5113,4.5078,4.5076,4.5074,4.5073,4.5129,4.5132,4.5135,0,0,0,0,0,0,0,0,0,0,0,0,0,4.4919,4.4921,4.5055,4.5056,4.5057,4.5111,4.5112,4.5113,4.5078,4.5076,4.5074,4.5072,4.5128,4.5131,4.5135,0,0,0,0,0,0,0,0,0,0,0,0,0,4.4977,4.4922,4.5055,4.5046,4.5046,4.5111,4.5112,4.5113,4.5078,4.5076,4.5073,4.5071,4.5127,4.5131,4.5135,4.5213,0,0,4.5149,4.5151,0,0,0,0,0,0,0,0,4.4973,4.4982,4.5047,4.5047,4.5046,4.5085,4.5084,4.5146,4.5079,4.5066,4.5073,4.507,4.5116,4.5121,4.5137,4.5215,4.5218,4.515,4.5152,4.5154,4.5156,0,0,0,0,0,0,0,4.4969,4.4979,4.5077,4.5048,4.5048,4.5039,4.5045,4.5096,4.5104,4.5067,4.5064,4.5072,4.5116,4.5133,4.5138,4.5219,4.515,4.5154,4.5156,4.5158,4.5366,4.5368,0,0,0,0,0,0,4.4966,4.4976,4.5076,4.5079,4.5003,4.5044,4.505,4.5075,4.5103,4.5105,4.5074,4.507,4.5126,4.5133,4.514,4.5234,4.5154,4.5159,4.5161,4.5363,4.5366,4.5369,0,0,0,0,0,0,4.4963,4.4975,4.5073,4.5027,4.5039,4.5049,4.5077,4.5078,4.5095,4.5109,4.511,4.509,4.5125,4.5134,4.5196,4.5235,4.5161,4.5165,4.536,4.5364,4.5368,4.5421,0,0,0,0,0,0,4.496,4.4975,4.5004,4.5028,4.5041,4.5128,4.508,4.508,4.5103,4.5098,4.5124,4.5126,4.5123,4.5189,4.52,4.524,4.5168,4.5356,4.5362,4.5366,4.5416,4.5427,4.5436,0,0,0,0,0,4.4955,4.5016,4.5005,4.5017,4.5078,4.513,4.5138,4.5134,4.5106,4.5136,4.5145,4.5125,4.5229,4.5196,4.5208,4.525,4.5353,4.536,4.5366,4.5412,4.5425,4.5436,0,0,0,0,0,0,4.4994,4.5018,4.5007,4.5078,4.5102,4.5124,4.5161,4.5148,4.518,4.5175,4.5168,4.5174,4.524,4.5251,4.5213,4.5328,4.5287,4.5296,4.5318,4.533,4.534,4.5336,4.5172,0,0,0,0,0,4.5012,4.5052,4.5071,4.5131,4.5144,4.5151,4.5173,4.5169,4.5194,4.5204,4.5217,4.5242,4.5281,4.5306,4.5342,4.5418,4.5424,4.5453,4.5463,4.5471,4.5479,4.5522,4.5536,4.539,4.539,4.539,0,0,4.5047,4.5065,4.5091,4.514,4.5158,4.5201,4.516,4.5206,4.5237,4.521,4.527,4.5282,4.5309,4.5379,4.541,4.539,4.5521,4.5479,4.5486,4.5489,4.553,4.5544,4.5556,4.5394,4.5393,4.5393,0,0,4.5133,4.5151,4.5204,4.5224,4.5253,4.5258,4.5271,4.5295,4.5302,4.5362,4.5344,4.5382,4.5448,4.5469,4.5488,4.5586,4.5569,4.5598,4.565,4.5692,4.5703,4.5714,4.575,4.5762,4.5606,4.5606,4.5606,0,4.5173,4.5237,4.5233,4.5281,4.5304,4.5283,4.5338,4.5357,4.5397,4.5413,4.539,4.5475,4.5491,4.5567,4.5591,4.5607,4.5623,4.5594,4.5702,4.5712,4.5722,4.5756,4.5769,4.5609,4.5609,4.5608,4.5608,0,4.5285,4.533,4.5369,4.5409,4.5436,4.5488,4.5492,4.552,4.5514,4.5522,4.5584,4.5604,4.5645,4.5663,4.5656,4.5738,4.5725,4.5703,4.5662,4.5739,4.5771,4.5784,4.5614,4.5613,4.5612,4.5611,0,0,4.5396,4.5435,4.545,4.5469,4.5501,4.5535,4.5587,4.5628,4.5653,4.5681,4.5724,4.5782,4.5763,4.5785,4.5781,4.5818,4.5896,4.5791,4.5791,4.581,4.5989,4.6006,4.6021,4.5886,4.5888,4.589,4.5987,0,4.5485,4.5574,4.5574,4.5657,4.5699,4.5681,4.5726,4.5751,4.576,4.5797,4.5806,4.5848,4.5818,4.5832,4.5868,4.5879,4.5932,4.5872,4.5926,4.5928,4.592,4.6038,4.6055,4.6146,4.6,4.6002,4.6003,0,4.56,4.5634,4.5721,4.575,4.5767,4.5808,4.5847,4.5882,4.5911,4.5915,4.5941,4.5933,4.5986,4.5944,4.6018,4.5977,4.6,4.6009,4.6012,4.6017,4.597,4.6046,4.6174,4.6188,4.6023,4.6021,4.602,0,4.5673,4.5741,4.5802,4.5819,4.5853,4.5883,4.5898,4.5924,4.595,4.5984,4.6001,4.6041,4.6062,4.6093,4.6096,4.6066,4.6171,4.6129,4.6176,4.6176,4.6199,4.6197,4.6333,4.6213,4.6213,4.6213,4.6212,0,4.5772,4.5827,4.5836,4.5874,4.5935,4.5935,4.5995,4.6009,4.6033,4.6074,4.6061,4.6099,4.61,4.614,4.6143,4.6204,4.6214,4.6219,4.6219,4.622,4.622,4.6235,4.6229,4.6216,4.6215,4.6215,4.6214,0,4.5864,4.5872,4.5939,4.5967,4.5975,4.6019,4.6043,4.608,4.6089,4.6141,4.6153,4.6166,4.6213,4.6219,4.6273,4.6275,4.6349,4.6342,4.6339,4.6338,4.6386,4.6381,4.6535,4.6556,4.6423,4.6424,4.6425,0,4.5927,4.5968,4.6002,4.6029,4.6046,4.6089,4.6116,4.6118,4.6147,4.6184,4.6217,4.6262,4.6298,4.6374,4.6388,4.643,4.6425,4.6476,4.6431,4.6431,4.6426,4.6424,4.6429,4.6484,4.6486,4.6487,4.6488,0,4.6038,4.6041,4.6079,4.6121,4.6154,4.6186,4.6217,4.624,4.6246,4.6279,4.6327,4.6355,4.6411,4.6457,4.6499,4.6515,4.6503,4.6502,4.6516,4.6517,4.6514,4.6517,4.6364,4.6498,4.6497,4.6497,4.6496,4.6496,4.6117,4.6154,4.6185,4.6229,4.6253,4.6283,4.6319,4.6334,4.6374,4.642,4.6419,4.6472,4.6502,4.6557,4.6577,4.6619,4.6602,4.6621,4.6626,4.6631,4.6636,4.6508,4.6627,4.6626,4.6626,4.6626,4.6626,0,4.6228,4.6248,4.6289,4.6333,4.6369,4.6356,4.639,4.642,4.6467,4.6497,4.6534,4.659,4.6635,4.6654,4.6699,4.6729,4.6725,4.674,4.6738,4.6743,4.6648,4.6632,4.6743,4.6743,4.6743,4.6743,4.6743,4.6743,4.629,4.6353,4.636,4.6435,4.6454,4.6507,4.6528,4.6555,4.6579,4.6643,4.668,4.6693,4.6719,4.6766,4.6807,4.6812,4.6829,4.6847,4.685,4.6761,4.6749,4.6737,4.6723,4.6851,4.6851,4.6941,4.6942,4.6942]},{"header":{"parameterUnit":"m.s-1","parameterCategory":1,"la1":30.2991,"la2":30.254,"lo1":-89.0895,"lo2":-89.0444,"dy":0.0017,"dx":0.0017,"nx":28,"ny":28,"refTime":"2026-01-31T09:00:00:Z","depth":0,"parameterNumber":3,"parameterNumberName":"V-component_of_WINDS"},"data":[0,0,0,0,0,0,0,0,0,0,0,0,0,0,0,0,0,0,0,0,0,0,0,0,0,0,0,0,0,0,0,0,0,0,0,0,0,0,0,0,0,0,0,0,0,0,0,0,0,0,0,0,0,0,0,0,0,0,-9.8953,-9.8955,0,-9.9109,-9.9111,-9.9113,-9.9063,-9.906,-9.9056,-9.9053,-9.9207,-9.9214,-9.9221,0,0,0,0,0,0,0,0,0,0,0,0,0,-9.8607,-9.8613,-9.8953,-9.8955,-9.8957,-9.9109,-9.9111,-9.9113,-9.9064,-9.906,-9.9056,-9.9052,-9.9204,-9.9213,-9.9221,0,0,0,0,0,0,0,0,0,0,0,0,0,-9.8759,-9.8615,-9.8952,-9.8951,-9.8952,-9.9109,-9.9111,-9.9114,-9.9065,-9.906,-9.9055,-9.905,-9.9201,-9.9212,-9.9222,-9.9388,0,0,-9.9255,-9.926,0,0,0,0,0,0,0,0,-9.8751,-9.8772,-9.8949,-9.8951,-9.8953,-9.9062,-9.9045,-9.9206,-9.9066,-9.9022,-9.9053,-9.9048,-9.9162,-9.9176,-9.9216,-9.9396,-9.9402,-9.9256,-9.9263,-9.9267,-9.927,0,0,0,0,0,0,0,-9.874,-9.8765,-9.9014,-9.8951,-9.8954,-9.894,-9.8957,-9.9075,-9.9117,-9.9025,-9.9022,-9.9041,-9.9162,-9.9205,-9.9219,-9.9404,-9.9256,-9.9266,-9.9272,-9.9276,-9.9731,-9.9736,0,0,0,0,0,0,-9.8729,-9.8756,-9.901,-9.9019,-9.8838,-9.8951,-9.8969,-9.9032,-9.9116,-9.9124,-9.9046,-9.9039,-9.919,-9.9206,-9.9224,-9.9426,-9.9267,-9.9277,-9.9284,-9.9725,-9.9732,-9.9738,0,0,0,0,0,0,-9.8722,-9.8752,-9.9003,-9.8887,-9.8918,-9.8962,-9.9033,-9.9037,-9.9081,-9.9132,-9.9138,-9.9083,-9.9186,-9.9209,-9.9349,-9.943,-9.9282,-9.9292,-9.9719,-9.9727,-9.9735,-9.9829,0,0,0,0,0,0,-9.8712,-9.875,-9.8814,-9.8889,-9.8925,-9.9127,-9.9038,-9.9044,-9.91,-9.9093,-9.9168,-9.9176,-9.9184,-9.9333,-9.936,-9.9442,-9.93,-9.9711,-9.9722,-9.9732,-9.9819,-9.984,-9.9858,0,0,0,0,0,-9.87,-9.8832,-9.8818,-9.8849,-9.9006,-9.9132,-9.9152,-9.9161,-9.9107,-9.9172,-9.9205,-9.9173,-9.9417,-9.9348,-9.9377,-9.9465,-9.9706,-9.9719,-9.9732,-9.9811,-9.9836,-9.9857,0,0,0,0,0,0,-9.8763,-9.8842,-9.8827,-9.8988,-9.9054,-9.9123,-9.9205,-9.9187,-9.9268,-9.9257,-9.9263,-9.928,-9.9424,-9.9458,-9.938,-9.9631,-9.9554,-9.9573,-9.9604,-9.9628,-9.9647,-9.9636,-9.9309,0,0,0,0,0,-9.8796,-9.8893,-9.8956,-9.9092,-9.9127,-9.9161,-9.9215,-9.9217,-9.9285,-9.9312,-9.9355,-9.942,-9.9512,-9.9572,-9.9658,-9.9824,-9.984,-9.9899,-9.9918,-9.9933,-9.995,-10.0042,-10.0069,-9.978,-9.9779,-9.9779,0,0,-9.8864,-9.892,-9.898,-9.9107,-9.9158,-9.9258,-9.9184,-9.9292,-9.9366,-9.9327,-9.9464,-9.9498,-9.9571,-9.9725,-9.9795,-9.9758,-10.0034,-9.995,-9.9962,-9.997,-10.0058,-10.0085,-10.0109,-9.9788,-9.9787,-9.9785,0,0,-9.904,-9.9092,-9.9212,-9.9266,-9.9346,-9.9369,-9.9398,-9.9471,-9.9493,-9.9631,-9.9605,-9.9692,-9.9849,-9.9903,-9.9951,-10.0151,-10.0126,-10.0179,-10.028,-10.0369,-10.0392,-10.0412,-10.0485,-10.0511,-10.0195,-10.0195,-10.0196,0,-9.9114,-9.9265,-9.9275,-9.9387,-9.9444,-9.9417,-9.9539,-9.959,-9.9693,-9.9732,-9.969,-9.9889,-9.9936,-10.0104,-10.0153,-10.0192,-10.0225,-10.017,-10.0388,-10.0409,-10.0428,-10.0497,-10.0524,-10.0201,-10.0201,-10.02,-10.02,0,-9.9353,-9.9458,-9.9546,-9.9651,-9.9717,-9.9832,-9.9859,-9.9925,-9.9922,-9.9948,-10.0089,-10.0145,-10.0244,-10.0284,-10.028,-10.0452,-10.0427,-10.0387,-10.0309,-10.0461,-10.0527,-10.0553,-10.021,-10.0208,-10.0206,-10.0205,0,0,-9.9571,-9.9683,-9.9714,-9.9763,-9.9851,-9.9932,-10.0047,-10.0147,-10.0204,-10.0276,-10.0373,-10.0508,-10.0473,-10.0527,-10.0529,-10.0608,-10.0765,-10.0558,-10.056,-10.0595,-10.096,-10.099,-10.1021,-10.0749,-10.0754,-10.0758,-10.0954,0,-9.9755,-9.996,-9.9974,-10.0159,-10.0257,-10.0234,-10.0335,-10.0399,-10.0427,-10.0513,-10.0543,-10.064,-10.0585,-10.0619,-10.0696,-10.073,-10.0838,-10.0716,-10.0838,-10.0842,-10.0821,-10.1055,-10.1087,-10.1269,-10.0979,-10.0984,-10.0987,0,-9.9997,-10.0081,-10.0277,-10.0354,-10.0396,-10.0486,-10.058,-10.0663,-10.0736,-10.0751,-10.0814,-10.0806,-10.0923,-10.0843,-10.1004,-10.0921,-10.0972,-10.0996,-10.1003,-10.1015,-10.0924,-10.1073,-10.1327,-10.1355,-10.1027,-10.1024,-10.1021,0,-10.0138,-10.03,-10.0439,-10.0481,-10.0574,-10.0638,-10.0679,-10.0747,-10.0808,-10.0889,-10.0928,-10.1021,-10.1072,-10.1144,-10.1161,-10.11,-10.1323,-10.1243,-10.1339,-10.1339,-10.1386,-10.1383,-10.1652,-10.1418,-10.1418,-10.1417,-10.1417,0,-10.0343,-10.0463,-10.0504,-10.059,-10.0725,-10.0739,-10.0872,-10.0908,-10.097,-10.1061,-10.1046,-10.1132,-10.1149,-10.1238,-10.1252,-10.1385,-10.1407,-10.1423,-10.1425,-10.1425,-10.1423,-10.1458,-10.1446,-10.1425,-10.1423,-10.1422,-10.142,0,-10.0523,-10.0555,-10.0705,-10.0782,-10.0805,-10.0901,-10.0966,-10.1048,-10.1076,-10.1192,-10.122,-10.1262,-10.1367,-10.1392,-10.1514,-10.1524,-10.1682,-10.1671,-10.1658,-10.1658,-10.1752,-10.1744,-10.2054,-10.2096,-10.1834,-10.1836,-10.1838,0,-10.0651,-10.0745,-10.0833,-10.0895,-10.0941,-10.104,-10.1102,-10.112,-10.1185,-10.1277,-10.1348,-10.1452,-10.1535,-10.1703,-10.1744,-10.1839,-10.1831,-10.1933,-10.1845,-10.1842,-10.1834,-10.1828,-10.1838,-10.195,-10.1953,-10.1955,-10.1957,0,-10.0877,-10.0889,-10.0981,-10.1081,-10.1156,-10.1234,-10.1308,-10.1359,-10.1387,-10.1461,-10.157,-10.1635,-10.1764,-10.1866,-10.1962,-10.2003,-10.1985,-10.1985,-10.2012,-10.2013,-10.2002,-10.201,-10.1705,-10.1977,-10.1975,-10.1974,-10.1972,-10.1972,-10.1036,-10.1119,-10.1196,-10.1299,-10.1358,-10.1429,-10.151,-10.155,-10.1642,-10.1749,-10.1754,-10.1872,-10.1944,-10.2072,-10.2118,-10.221,-10.2178,-10.2218,-10.2228,-10.2237,-10.2247,-10.1988,-10.2227,-10.2227,-10.2226,-10.2226,-10.2225,0,-10.1262,-10.1311,-10.1407,-10.1513,-10.1595,-10.1574,-10.1656,-10.1725,-10.1831,-10.1901,-10.1985,-10.211,-10.2211,-10.2261,-10.2361,-10.2425,-10.2419,-10.245,-10.2446,-10.2456,-10.2268,-10.2236,-10.2453,-10.2453,-10.2453,-10.2453,-10.2453,-10.2453,-10.1389,-10.153,-10.1551,-10.172,-10.1768,-10.1886,-10.1935,-10.2,-10.2056,-10.2198,-10.2283,-10.2316,-10.2379,-10.2483,-10.2574,-10.2586,-10.2624,-10.266,-10.2668,-10.2492,-10.2469,-10.2446,-10.2416,-10.2668,-10.2668,-10.2847,-10.2849,-10.285]}]]